TimeEST,TemperatureF,Dew PointF,Humidity,Sea Level PressureIn,VisibilityMPH,Wind Direction,Wind SpeedMPH,Gust SpeedMPH,PrecipitationIn,Events,Conditions,WindDirDegrees,DateUTC
12:15 AM,41.9,41.0,97,30.47,0.2,Calm,Calm,-,N/A,Fog,Fog,0,2013-01-10 05:15:00
12:35 AM,41.7,40.8,97,30.46,0.5,Calm,Calm,-,N/A,Fog,Fog,0,2013-01-10 05:35:00
12:55 AM,41.4,40.3,96,30.46,0.2,Calm,Calm,-,N/A,Fog,Fog,0,2013-01-10 05:55:00
1:15 AM,41.4,40.3,96,30.46,0.5,Calm,Calm,-,N/A,Fog,Fog,0,2013-01-10 06:15:00
1:35 AM,41.2,40.1,96,30.46,0.2,Calm,Calm,-,N/A,Fog,Fog,0,2013-01-10 06:35:00
1:55 AM,41.9,40.6,95,30.46,0.2,Calm,Calm,-,N/A,Fog,Fog,0,2013-01-10 06:55:00
3:15 AM,41.9,41.0,97,30.47,0.5,Calm,Calm,-,N/A,Fog,Fog,0,2013-01-10 08:15:00
3:35 AM,41.9,40.6,95,30.47,0.2,Calm,Calm,-,N/A,Fog,Fog,0,2013-01-10 08:35:00
3:55 AM,41.9,41.0,97,30.47,0.2,Calm,Calm,-,N/A,Fog,Fog,0,2013-01-10 08:55:00
4:15 AM,42.1,41.0,96,30.47,0.2,Calm,Calm,-,N/A,Fog,Fog,0,2013-01-10 09:15:00
4:35 AM,42.3,41.2,96,30.46,0.2,Calm,Calm,-,N/A,Fog,Fog,0,2013-01-10 09:35:00
4:55 AM,42.1,41.0,96,30.45,0.2,Calm,Calm,-,N/A,Fog,Fog,0,2013-01-10 09:55:00
5:15 AM,42.1,41.0,96,30.45,0.2,Calm,Calm,-,N/A,Fog,Fog,0,2013-01-10 10:15:00
5:35 AM,42.1,41.0,96,30.46,0.2,Calm,Calm,-,N/A,Fog,Fog,0,2013-01-10 10:35:00
5:55 AM,41.9,40.5,95,30.45,0.2,Calm,Calm,-,N/A,Fog,Fog,0,2013-01-10 10:55:00
6:15 AM,42.1,41.0,96,30.46,0.2,Calm,Calm,-,N/A,Fog,Fog,0,2013-01-10 11:15:00
6:35 AM,41.9,40.5,95,30.46,0.2,Calm,Calm,-,N/A,Fog,Fog,0,2013-01-10 11:35:00
6:55 AM,41.9,40.6,95,30.46,0.2,Calm,Calm,-,N/A,Fog,Fog,0,2013-01-10 11:55:00
7:15 AM,41.9,40.6,95,30.46,0.2,Calm,Calm,-,N/A,Fog,Fog,0,2013-01-10 12:15:00
7:35 AM,42.1,40.8,95,30.46,0.2,Calm,Calm,-,N/A,Fog,Fog,0,2013-01-10 12:35:00
7:55 AM,41.9,40.5,95,30.47,0.2,Calm,Calm,-,N/A,Fog,Fog,0,2013-01-10 12:55:00
8:15 AM,42.3,41.0,95,30.48,0.2,Calm,Calm,-,0.01,Fog,Fog,0,2013-01-10 13:15:00
8:55 AM,43.2,41.9,95,30.48,0.2,Calm,Calm,-,0.01,Fog,Fog,0,2013-01-10 13:55:00
9:15 AM,43.3,42.1,95,30.48,0.2,Calm,Calm,-,N/A,Fog,Fog,0,2013-01-10 14:15:00
9:35 AM,43.9,42.6,95,30.48,0.2,Calm,Calm,-,N/A,Fog,Fog,0,2013-01-10 14:35:00
9:55 AM,44.6,43.3,95,30.49,0.2,Calm,Calm,-,N/A,Fog,Fog,0,2013-01-10 14:55:00
10:15 AM,45.0,43.7,95,30.49,0.5,Calm,Calm,-,N/A,Fog,Fog,0,2013-01-10 15:15:00
10:35 AM,45.9,44.6,95,30.48,7.0,Calm,Calm,-,N/A,,Overcast,0,2013-01-10 15:35:00
10:55 AM,46.4,45.0,95,30.48,10.0,Calm,Calm,-,N/A,,Overcast,0,2013-01-10 15:55:00
11:15 AM,47.3,45.9,95,30.47,10.0,Calm,Calm,-,N/A,,Overcast,0,2013-01-10 16:15:00
11:35 AM,47.8,46.6,95,30.47,10.0,Calm,Calm,-,N/A,,Overcast,0,2013-01-10 16:35:00
11:55 AM,48.7,47.5,95,30.45,10.0,Calm,Calm,-,N/A,,Overcast,0,2013-01-10 16:55:00
12:15 PM,50.0,48.6,95,30.44,10.0,Calm,Calm,-,N/A,,Overcast,0,2013-01-10 17:15:00
12:35 PM,50.9,49.5,95,30.43,10.0,Calm,Calm,-,N/A,,Overcast,0,2013-01-10 17:35:00
12:55 PM,52.0,50.7,95,30.41,10.0,Calm,Calm,-,N/A,,Overcast,0,2013-01-10 17:55:00
1:15 PM,55.6,52.7,90,30.40,10.0,Calm,Calm,-,N/A,,Overcast,0,2013-01-10 18:15:00
1:35 PM,57.6,50.7,78,30.39,10.0,NE,3.5,-,N/A,,Overcast,40,2013-01-10 18:35:00
1:55 PM,59.4,48.7,68,30.38,10.0,ENE,3.5,-,N/A,,Overcast,60,2013-01-10 18:55:00
2:15 PM,61.2,46.6,59,30.38,10.0,Calm,Calm,-,N/A,,Overcast,0,2013-01-10 19:15:00
2:35 PM,62.6,45.5,54,30.38,10.0,Calm,Calm,-,N/A,,Overcast,0,2013-01-10 19:35:00
2:55 PM,63.1,45.1,52,30.37,10.0,ESE,4.6,-,N/A,,Overcast,120,2013-01-10 19:55:00
3:15 PM,62.6,45.0,52,30.37,10.0,Calm,Calm,-,N/A,,Overcast,0,2013-01-10 20:15:00
3:35 PM,63.5,45.5,52,30.37,10.0,Calm,Calm,-,N/A,,Overcast,0,2013-01-10 20:35:00
3:55 PM,64.0,45.7,51,30.37,10.0,South,5.8,-,N/A,,Overcast,190,2013-01-10 20:55:00
4:15 PM,63.5,46.2,53,30.37,10.0,SW,4.6,-,N/A,,Overcast,220,2013-01-10 21:15:00
4:35 PM,62.6,46.4,55,30.38,10.0,SW,3.5,-,N/A,,Overcast,230,2013-01-10 21:35:00
4:55 PM,62.1,46.8,57,30.38,10.0,Calm,Calm,-,N/A,,Overcast,0,2013-01-10 21:55:00
5:15 PM,61.7,47.3,59,30.38,10.0,South,4.6,-,N/A,,Overcast,180,2013-01-10 22:15:00
5:35 PM,60.8,47.3,61,30.37,10.0,SSE,4.6,-,N/A,,Overcast,160,2013-01-10 22:35:00
5:55 PM,58.6,46.8,65,30.36,10.0,ENE,3.5,-,N/A,,Mostly Cloudy,70,2013-01-10 22:55:00
6:15 PM,57.0,46.9,69,30.37,10.0,Calm,Calm,-,N/A,,Overcast,0,2013-01-10 23:15:00
6:35 PM,55.4,47.1,74,30.37,10.0,Calm,Calm,-,N/A,,Mostly Cloudy,0,2013-01-10 23:35:00
6:55 PM,53.4,47.8,81,30.37,10.0,Calm,Calm,-,N/A,,Overcast,0,2013-01-10 23:55:00
7:15 PM,53.6,47.5,80,30.37,10.0,Calm,Calm,-,N/A,,Overcast,0,2013-01-11 00:15:00
7:35 PM,52.0,47.3,84,30.36,10.0,Calm,Calm,-,N/A,,Scattered Clouds,0,2013-01-11 00:35:00
7:55 PM,55.6,47.7,75,30.35,10.0,Calm,Calm,-,N/A,,Scattered Clouds,0,2013-01-11 00:55:00
8:15 PM,56.8,47.5,71,30.34,10.0,Calm,Calm,-,N/A,,Mostly Cloudy,0,2013-01-11 01:15:00
8:35 PM,58.8,47.7,66,30.34,10.0,SE,3.5,-,N/A,,Overcast,130,2013-01-11 01:35:00
8:55 PM,59.0,47.8,66,30.34,10.0,SE,4.6,-,N/A,,Overcast,140,2013-01-11 01:55:00
9:15 PM,59.5,47.8,65,30.34,10.0,SE,4.6,-,N/A,,Overcast,130,2013-01-11 02:15:00
9:35 PM,59.5,47.8,65,30.32,10.0,Calm,Calm,-,N/A,,Overcast,0,2013-01-11 02:35:00
9:55 PM,59.5,48.2,66,30.32,10.0,SE,4.6,-,N/A,,Overcast,130,2013-01-11 02:55:00
10:15 PM,59.0,48.7,69,30.32,10.0,ESE,4.6,-,N/A,,Overcast,120,2013-01-11 03:15:00
10:35 PM,57.9,49.3,73,30.31,10.0,South,3.5,-,N/A,,Overcast,170,2013-01-11 03:35:00
10:55 PM,57.2,49.5,75,30.30,10.0,South,3.5,-,N/A,,Overcast,170,2013-01-11 03:55:00
11:15 PM,56.5,50.2,79,30.30,7.0,SSE,6.9,-,N/A,Rain,Light Rain,160,2013-01-11 04:15:00
11:35 PM,55.0,52.3,91,30.30,10.0,SSE,3.5,-,N/A,,Overcast,150,2013-01-11 04:35:00
11:55 PM,55.0,51.8,89,30.30,10.0,Calm,Calm,-,N/A,,Drizzle,0,2013-01-11 04:55:00